Regional Weather Roundup
Issued by NWS Cleveland, OH

Home | Current Version | Previous Version | Graphics & Text | Print | Product List | Glossary On
Versions: 1 2 3 4 5 6 7 8 9 10 11 12 13 14 15 16 17 18 19 20 21 22 23 24 25 26 27 28 29 30 31 32 33 34 35 36 37 38 39 40 41 42 43 44 45 46 47 48 49 50
000
ASUS41 KCLE 312210
RWRCLE
OHIO REGIONAL WEATHER ROUNDUP
NATIONAL WEATHER SERVICE CLEVELAND, OH
600 PM EDT MON AUG 31 2015

NOTE: "FAIR" INDICATES FEW OR NO CLOUDS BELOW 12,000 FEET WITH NO
SIGNIFICANT WEATHER AND/OR OBSTRUCTIONS TO VISIBILITY.

OHZ001>008-015>018-024>027-034-035-043-044-312300-
   NORTHWEST OHIO

CITY           SKY/WX    TMP DP  RH WIND       PRES   REMARKS
DEFIANCE       MOSUNNY   85  67  54 CALM      30.04S
FINDLAY        SUNNY     86  67  52 SW5       30.04S
TOLEDO EXPRESS SUNNY     85  66  53 W6        30.03S
TOLEDO EXEC    SUNNY     86  65  49 MISG      30.04S
LIMA           MOSUNNY   84  66  54 SW7       30.06S
$$

OHZ009>014-019>023-028>033-038-089-312300-
   NORTHEAST OHIO

CITY           SKY/WX    TMP DP  RH WIND       PRES   REMARKS
CLE-HOPKINS    MOSUNNY   81  67  62 N8        30.07F
CLE-LAKEFRONT  SUNNY     80  69  69 NE5       30.04F
CUY CO. ARPT   SUNNY     82  68  61 NW9       30.07F
LORAIN-ELYRIA  SUNNY     83  68  60 N5        30.06S
ASHTABULA      SUNNY     79  68  69 NW6       30.08S
AKRON-CANTON   MOSUNNY   86  64  47 W6        30.06F
WOOSTER        CLOUDY    85  66  53 W5        30.07S
MANSFIELD      SUNNY     85  65  51 W5        30.08S
YOUNGSTOWN     MOSUNNY   83  65  54 W7        30.06S
$$

OHZ042-051>053-060>062-070>072-077>081-312300-
  SOUTHWEST OHIO

CITY           SKY/WX    TMP DP  RH WIND       PRES   REMARKS
CINC-COVINGTON MOSUNNY   86  65  49 W7        30.07S
CINC-LUNKEN    MOSUNNY   85  67  54 S9        30.05F
HAMILTON       MOSUNNY   87  67  51 W5        30.07S HX  90
DAYTON         PTSUNNY   78  70  76 W6        30.08F
WRIGHT-PAT AFB TSTM      82  65  57 S7        30.07R
DAYTON GENERAL SUNNY     84  65  52 SW7       30.07S
WILMINGTON     SUNNY     82  66  58 S7        30.07F
$$

OHZ036-037-039>041-045>050-054>059-063>069-073>076-082>088-312300-
  CENTRAL AND SOUTHEAST OHIO

CITY           SKY/WX    TMP DP  RH WIND       PRES   REMARKS
COLUMBUS       PTSUNNY   83  68  60 S6        30.05F
OSU AIRPORT    PTSUNNY   86  68  54 SW12      30.05F
BOLTON FIELD   SUNNY     81  70  69 S7        30.07F
RICKENBACK AFB MOSUNNY   81  66  58 SW7       30.06S
NEWARK         MOSUNNY   82  68  62 SW5       30.06S
MARION         SUNNY     85  66  53 NW6       30.06F
LANCASTER      MOSUNNY   81  67  62 W7        30.07F
ZANESVILLE     MOSUNNY   87  63  44 NW8       30.06S
NEW PHILLY     MOSUNNY   86  65  49 VRB6      30.06S
$$


USA.gov is the U.S. government's official web portal to all federal, state and local government web resources and services.